Weather History for Nagpur Sonegaon, India

Change the Weather History Date:

Saturday, July 20, 2013

  Actual Average Record
Temperature  
Mean Temperature 80 °F -  
Max Temperature 86 °F 88 °F - ()
Min Temperature 74 °F 74 °F - ()
Cooling Degree Days 15    
Growing Degree Days 30 (Base 50)    
Moisture  
Dew Point 77 °F    
Average Humidity 87    
Maximum Humidity 100    
Minimum Humidity 69    
Precipitation  
Precipitation 0.00 in 0.38 in - ()
Sea Level Pressure  
Sea Level Pressure 29.54 in    
Wind  
Wind Speed 5 mph ()    
Max Wind Speed 10 mph    
Max Gust Speed -    
Visibility 2.9 miles    
Events Rain    
T = Trace of Precipitation, MM = Missing Value Source: Averaged Metar Reports

Daily Weather History Graph

Daily Weather History Graph

Search for Another Location

Airport:

Trip Planner

Search our weather history database for the weather conditions in past years. The results will help you decide how hot, cold, wet, or windy it might be!

Date:

Astronomy

Jul. 20, 2013 Rise Set
Actual Time 5:42 AM IST 6:57 PM IST
Civil Twilight 5:18 AM IST 7:21 PM IST
Nautical Twilight 4:49 AM IST 7:50 PM IST
Astronomical Twilight 4:20 AM IST 8:19 PM IST
Moon 4:33 PM IST (7/20) 2:53 AM IST (7/20)
Length of Visible Light 14h 02m
Length of Day
13h 14m
Waxing Gibbous, 91% of the Moon is Illuminated
Jul 20
Waxing Gibbous
Jul 22
Full
Jul 29
Last Quarter
Aug 7
New
Aug 14
First Quarter

Hourly Weather History & Observations

Time (IST) Temp. Heat Index Dew Point Humidity Pressure Visibility Wind Dir Wind Speed Gust Speed Precip Events Conditions
12:10 AM 75.2 °F - 75.2 °F 100% 29.50 in 1.2 mi WNW 6.9 mph - N/A Rain Light Rain
1:10 AM 75.2 °F - 75.2 °F 100% 29.53 in 1.2 mi West 4.6 mph - N/A   Haze
2:10 AM 75.2 °F - 75.2 °F 100% 29.50 in 1.2 mi WSW 4.6 mph - N/A   Haze
2:30 AM 76 °F - 76 °F 98% 29.47 in 1 mi West 4.6 mph - - Rain Light Rain
3:10 AM 75.2 °F - 75.2 °F 100% 29.50 in 1.9 mi Calm Calm - N/A   Haze
4:10 AM 75.2 °F - 75.2 °F 100% 29.50 in 1.9 mi Calm Calm - N/A   Haze
5:10 AM 75.2 °F - 75.2 °F 100% 29.47 in 1.9 mi West 4.6 mph - N/A   Haze
5:30 AM 76 °F - 75 °F 96% 29.46 in 1 mi WSW 4.6 mph - -   Haze
6:10 AM 75.2 °F - 75.2 °F 100% 29.50 in 2.5 mi WSW 2.3 mph - N/A   Haze
7:10 AM 80.6 °F 86.2 °F 75.2 °F 84% 29.53 in 3.1 mi WSW 4.6 mph - N/A   Haze
7:40 AM 80.6 °F 86.2 °F 75.2 °F 84% 29.53 in 3.1 mi West 4.6 mph - N/A   Haze
8:10 AM 82.4 °F 90.9 °F 77.0 °F 84% 29.53 in 3.1 mi West 5.8 mph - N/A   Haze
8:30 AM 80 °F - 77 °F 89% 29.52 in 2 mi West 6.9 mph - -   Haze
8:40 AM 80.6 °F 87.1 °F 77.0 °F 89% 29.56 in 3.1 mi West 6.9 mph - N/A   Haze
9:10 AM 80.6 °F 87.1 °F 77.0 °F 89% 29.56 in 3.1 mi West 5.8 mph - N/A   Haze
9:40 AM 82.4 °F 90.9 °F 77.0 °F 84% 29.59 in 3.7 mi West 8.1 mph - N/A   Mostly Cloudy
10:10 AM 82.4 °F 92.4 °F 78.8 °F 89% 3.01 in 3.7 mi WNW 8.1 mph - N/A   Mostly Cloudy
10:40 AM 82.4 °F 92.4 °F 78.8 °F 89% 29.59 in 3.7 mi WNW 8.1 mph - N/A   Mostly Cloudy
11:10 AM 82.4 °F 92.4 °F 78.8 °F 89% 29.59 in 3.7 mi West 6.9 mph - N/A   Mostly Cloudy
11:30 AM 83 °F - 77 °F 77% 29.53 in 2 mi West 6.9 mph - -   Mostly Cloudy
11:40 AM 82.4 °F 90.9 °F 77.0 °F 84% 29.59 in 3.7 mi West 9.2 mph - N/A   Mostly Cloudy
12:10 PM 84.2 °F 94.1 °F 77.0 °F 79% 29.59 in 3.7 mi WNW 9.2 mph - N/A   Mostly Cloudy
12:40 PM 84.2 °F 96.1 °F 78.8 °F 84% 29.56 in 3.7 mi West 6.9 mph - N/A   Mostly Cloudy
1:10 PM 84.2 °F 96.1 °F 78.8 °F 84% 29.56 in 3.7 mi West 9.2 mph - N/A   Mostly Cloudy
1:40 PM 84.2 °F 96.1 °F 78.8 °F 84% 29.56 in 3.7 mi West 9.2 mph - N/A   Mostly Cloudy
2:10 PM 84.2 °F 96.1 °F 78.8 °F 84% 29.56 in 3.7 mi West 9.2 mph - N/A   Mostly Cloudy
2:30 PM 86 °F - 78 °F 71% 29.49 in 2 mi WNW 9.2 mph - -   Partly Cloudy
2:40 PM 86.0 °F 99.3 °F 78.8 °F 79% 29.53 in 3.7 mi West 10.4 mph - N/A   Mostly Cloudy
3:10 PM 87.8 °F 102.5 °F 78.8 °F 75% 29.53 in 3.7 mi West 9.2 mph - N/A   Mostly Cloudy
3:40 PM 86.0 °F 99.3 °F 78.8 °F 79% 29.53 in 3.7 mi West 10.4 mph - N/A   Mostly Cloudy
4:10 PM 86.0 °F 99.3 °F 78.8 °F 79% 29.50 in 3.7 mi West 9.2 mph - N/A   Mostly Cloudy
4:40 PM 86.0 °F 99.3 °F 78.8 °F 79% 29.50 in 3.7 mi West 8.1 mph - N/A   Mostly Cloudy
5:10 PM 84.2 °F 96.1 °F 78.8 °F 84% 29.50 in 3.7 mi West 9.2 mph - N/A   Mostly Cloudy
5:30 PM 85 °F - 76 °F 69% 29.47 in 2 mi WNW 9.2 mph - -   Partly Cloudy
5:40 PM 84.2 °F 94.1 °F 77.0 °F 79% 29.53 in 3.7 mi WNW 10.4 mph - N/A   Mostly Cloudy
6:10 PM 82.4 °F 89.5 °F 75.2 °F 79% 29.53 in 3.7 mi West 8.1 mph - N/A   Mostly Cloudy
7:10 PM 80.6 °F 86.2 °F 75.2 °F 84% 29.56 in 3.7 mi West 5.8 mph - N/A   Mostly Cloudy
7:40 PM 80.6 °F 86.2 °F 75.2 °F 84% 29.56 in 3.7 mi West 2.3 mph - N/A   Scattered Clouds
8:30 PM 80 °F - 76 °F 84% 29.54 in 1 mi West 6.9 mph - -   Haze
8:40 PM 78.8 °F - 75.2 °F 89% 29.59 in 3.1 mi West 5.8 mph - N/A   Haze
9:10 PM 78.8 °F - 75.2 °F 89% 29.59 in 3.1 mi West 5.8 mph - N/A   Haze
9:40 PM 78.8 °F - 75.2 °F 89% 29.59 in 3.1 mi Calm Calm - N/A   Haze
10:10 PM 78.8 °F - 75.2 °F 89% 29.62 in 3.1 mi West 4.6 mph - N/A   Haze
11:10 PM 77.0 °F - 73.4 °F 89% 29.59 in 3.1 mi West 2.3 mph - N/A   Haze
11:30 PM 78 °F - 75 °F 86% 29.55 in 1 mi WSW 5.8 mph - -   Haze